NOAA 16 DEB, 41416

Orbit data source: Space-Track

NOAA 16 DEB, 41416 is space debris in SSO originally from a launch on Thu, 21 Sep 2000 UTC launched from the Air Force Western Test Range (AFWTR). Debris objects in space refer to the collection of defunct objects orbiting the Earth. Examples of debris include non-operational satellites, rocket bodies, and fragments generated from explosions, collisions, or faulty payload assembly.

Loading next visibility...
Identifier
41416, 2000-055KV
Orbit
SSO
Country
Flag of USUS
Related business
Manufacturer
Unknown
Mission
Spacecraft
Bus & Motor
Unknown
Mass
Unknown
Launch date (UTC)
2000-09-21 (26 years ago)
Launch vehicle
Unknown
Launch site
Air Force Western Test Range (AFWTR)
Object type
Payload
Rocket body
Debris
Shape & HBR
Unknown shape, 0.1 m
Radar Cross Section
Small (<0.1 m²)

Expand to show TLE details & history
Last TLE update: 3 days ago

TLE from 3 days ago
0 NOAA 16 DEB
1 41416U 00055KV  26170.12846523  .00004471  00000-0  13907-2 0  9991
2 41416  98.7802 285.9739 0027780  94.8932 265.5429 14.41269702535118
Epoch: 2026-06-19T03:04Z
TLE epoch observation values (Epoch: 2026-06-19T03:04:59.395Z)
Latitude
-0.00002°
Longitude
-27.63546°
Altitude
758.843 km
Speed
7.474 km/s
True Right ascension
19h 03m 53s
True Declination
0° 00' 00"
Sunlit
Object was in full shadow at epoch
Visualization orbit readout
Latitude
Unknown
Longitude
Unknown
Altitude
Unknown
Speed
Unknown
Apparent Right ascension
Unknown
Apparent Declination
Unknown
Sunlit
N/A
Visualization observer readout
Local Sidereal Time
23:27:07
Azimuth
Unknown
Elevation
Unknown
Doppler factor
Unknown
Orbital elements
Apogee altitude
771.246 km
Perigee altitude
731.634 km
Semi-major axis
7,129.577 km
Eccentricity
0.00278
Inclination
98.7802°
RAAN
285.9739°
Arg. of periapsis
94.8932°
True anomaly
265.22561°
Mean anomaly
265.5429°
Eccentric anomaly
265.38425°
Mean motion
3.60535 °/min
Orbital period
99.85 mins
BSTAR
0.0013907
Loading maneuver chart data...
Computing Atmospheric mass density...
Loading historical data...
Loading historical data...
Loading historical data...
Loading historical data...
Loading historical data...
Loading historical data...
Loading historical data...

Documentation

Showing up to 5 results
|